TimePDT,TemperatureF,Dew PointF,Humidity,Sea Level PressureIn,VisibilityMPH,Wind Direction,Wind SpeedMPH,Gust SpeedMPH,PrecipitationIn,Events,Conditions,WindDirDegrees,DateUTC
12:53 AM,42.1,41.0,96,30.45,10.0,Calm,Calm,-,N/A,,Clear,0,2013-10-04 07:53:00
1:53 AM,41.0,39.9,96,30.47,9.0,SW,4.6,-,N/A,,Clear,230,2013-10-04 08:53:00
2:53 AM,39.9,39.9,100,30.47,10.0,SSW,3.5,-,N/A,,Clear,200,2013-10-04 09:53:00
3:32 AM,39.9,39.0,97,30.46,10.0,Calm,Calm,-,N/A,,Partly Cloudy,0,2013-10-04 10:32:00
3:46 AM,42.1,39.9,92,30.46,10.0,SW,5.8,-,N/A,,Mostly Cloudy,230,2013-10-04 10:46:00
3:53 AM,44.1,42.1,93,30.46,10.0,SW,6.9,-,N/A,,Overcast,230,2013-10-04 10:53:00
4:53 AM,46.0,44.1,93,30.46,10.0,SSW,3.5,-,N/A,,Overcast,200,2013-10-04 11:53:00
5:38 AM,46.0,45.0,96,30.44,1.8,SW,5.8,-,N/A,,Overcast,230,2013-10-04 12:38:00
5:50 AM,46.4,44.6,93,30.45,0.8,WSW,5.8,-,N/A,,Overcast,240,2013-10-04 12:50:00
5:53 AM,46.0,44.1,93,30.46,1.0,WSW,5.8,-,N/A,,Overcast,240,2013-10-04 12:53:00
6:10 AM,46.0,45.0,96,30.45,1.5,SW,5.8,-,N/A,,Overcast,220,2013-10-04 13:10:00
6:20 AM,46.0,45.0,96,30.46,3.0,WSW,5.8,-,N/A,,Overcast,240,2013-10-04 13:20:00
6:53 AM,44.1,42.1,93,30.47,10.0,SSE,3.5,-,N/A,,Overcast,160,2013-10-04 13:53:00
7:53 AM,46.9,45.0,93,30.46,10.0,South,4.6,-,N/A,,Overcast,180,2013-10-04 14:53:00
8:53 AM,48.0,45.0,89,30.47,10.0,SW,3.5,-,N/A,,Mostly Cloudy,220,2013-10-04 15:53:00
9:18 AM,50.0,46.0,86,30.47,10.0,Calm,Calm,-,N/A,,Scattered Clouds,0,2013-10-04 16:18:00
9:45 AM,51.1,46.9,86,30.47,10.0,Variable,3.5,-,N/A,,Mostly Cloudy,0,2013-10-04 16:45:00
9:53 AM,50.0,46.0,86,30.47,10.0,North,3.5,-,N/A,,Mostly Cloudy,360,2013-10-04 16:53:00
10:05 AM,51.1,46.9,86,30.46,10.0,North,3.5,-,N/A,,Mostly Cloudy,10,2013-10-04 17:05:00
10:40 AM,52.0,46.0,80,30.46,10.0,East,6.9,-,N/A,,Scattered Clouds,90,2013-10-04 17:40:00
10:53 AM,52.0,46.0,80,30.46,10.0,Variable,5.8,-,N/A,,Partly Cloudy,0,2013-10-04 17:53:00
11:21 AM,52.0,46.0,80,30.46,10.0,ENE,6.9,-,N/A,,Scattered Clouds,60,2013-10-04 18:21:00
11:34 AM,52.0,46.0,80,30.46,10.0,Variable,4.6,-,N/A,,Mostly Cloudy,0,2013-10-04 18:34:00
11:53 AM,51.1,46.0,83,30.47,10.0,NNE,4.6,-,N/A,,Overcast,30,2013-10-04 18:53:00
12:53 PM,50.0,46.9,89,30.47,10.0,Calm,Calm,-,N/A,,Overcast,0,2013-10-04 19:53:00
1:05 PM,50.0,46.9,89,30.45,10.0,Variable,3.5,-,N/A,,Overcast,0,2013-10-04 20:05:00
1:53 PM,51.1,46.9,86,30.44,10.0,ENE,4.6,-,N/A,,Overcast,70,2013-10-04 20:53:00
2:38 PM,52.0,48.0,86,30.42,10.0,Variable,4.6,-,N/A,,Mostly Cloudy,0,2013-10-04 21:38:00
2:53 PM,52.0,46.9,83,30.43,10.0,NNE,4.6,-,N/A,,Scattered Clouds,20,2013-10-04 21:53:00
3:53 PM,53.1,46.9,80,30.41,10.0,NNE,3.5,-,N/A,,Overcast,30,2013-10-04 22:53:00
4:53 PM,51.1,48.0,89,30.40,10.0,NNE,3.5,-,N/A,,Overcast,20,2013-10-04 23:53:00
5:53 PM,52.0,48.0,86,30.40,10.0,Calm,Calm,-,N/A,,Overcast,0,2013-10-05 00:53:00
6:53 PM,51.1,48.0,89,30.39,10.0,Calm,Calm,-,N/A,,Overcast,0,2013-10-05 01:53:00
7:53 PM,48.9,46.9,93,30.38,10.0,Calm,Calm,-,N/A,,Partly Cloudy,0,2013-10-05 02:53:00
8:53 PM,48.9,46.9,93,30.36,10.0,SSE,3.5,-,N/A,,Overcast,160,2013-10-05 03:53:00
9:53 PM,46.9,45.0,93,30.36,9.0,Calm,Calm,-,N/A,,Mostly Cloudy,0,2013-10-05 04:53:00
10:53 PM,46.0,45.0,96,30.36,10.0,Calm,Calm,-,N/A,,Scattered Clouds,0,2013-10-05 05:53:00
11:23 PM,46.9,45.0,93,30.36,10.0,Calm,Calm,-,N/A,,Mostly Cloudy,0,2013-10-05 06:23:00
11:32 PM,46.9,45.0,93,30.36,10.0,Calm,Calm,-,N/A,,Mostly Cloudy,0,2013-10-05 06:32:00
11:44 PM,46.9,45.0,93,30.36,10.0,Calm,Calm,-,N/A,,Mostly Cloudy,0,2013-10-05 06:44:00
11:53 PM,46.9,45.0,93,30.37,10.0,Calm,Calm,-,N/A,,Overcast,0,2013-10-05 06:53:00